Regional Weather Roundup
Issued by NWS

Home | Current Version | Previous Version | Graphics & Text | Print | Product List | Glossary On
Versions: 1 2 3 4 5 6 7 8 9 10 11 12 13 14 15 16 17 18 19 20 21 22 23 24 25 26 27 28 29 30 31 32 33 34 35 36 37 38 39 40 41 42 43 44 45 46 47 48 49 50
000
ASUS43 KLOT 261004
RWRIL

ILLINOIS REGIONAL WEATHER ROUNDUP
NATIONAL WEATHER SERVICE CHICAGO/ROMEOVILLE IL
500 AM CDT FRI AUG 26 2016

NOTE: "FAIR" INDICATES FEW OR NO CLOUDS BELOW 12,000 FEET WITH NO
SIGNIFICANT WEATHER AND/OR OBSTRUCTIONS TO VISIBILITY.

* THESE STATIONS ARE NOT UNDER NWS QUALITY CONTROL. THEY ALSO MAY NOT
  REPORT WEATHER SUCH AS PRECIPITATION OR FOG.

ILZ001-002-007-009-015-016-024-261100-
NORTHWEST ILLINOIS

CITY           SKY/WX    TMP DP  RH WIND       PRES   REMARKS
MOLINE         MOCLDY    65  62  90 CALM      30.12S
STERLING*      FAIR      66  62  87 N6        30.13R
SAVANNA*       FAIR      62  61  96 CALM      30.14R
$$

ILZ003-004-008-010-011-017-018-261100-
NORTH CENTRAL ILLINOIS

CITY           SKY/WX    TMP DP  RH WIND       PRES   REMARKS
ROCKFORD       FAIR      64  61  90 N3        30.15R
FREEPORT*      FAIR      61  60  96 CALM      30.16R
ROCHELLE*      FAIR      61  61  98 N5        30.14R
$$

ILZ005-006-012>014-019>023-261100-
NORTHEAST ILLINOIS

CITY           SKY/WX    TMP DP  RH WIND       PRES   REMARKS
CHICAGO-OHARE  MOCLDY    68  61  78 NW9       30.11R
CHICAGO-MIDWAY CLOUDY    68  61  78 CALM      30.11R
AURORA         FAIR      63  61  93 NW3       30.13R
LANSING*       FAIR      65  65 100 CALM      30.12S
JOLIET*        FOG       65  65  99 CALM      30.12S VSB 3/4
WAUKEGAN       FAIR      65  61  87 NW3       30.12R
DUPAGE AIRPORT FAIR      63  59  87 N3        30.12R
KANKAKEE*      LGT RAIN  68  66  94 CALM      30.12S
WHEELING       FAIR      65  61  87 N5        30.12R
MORRIS*        FAIR      64  63  95 CALM      30.12R
ROMEOVILLE*    FAIR      64  64 100 CALM      30.12S
NORTHERLY ISL    N/A     67  61  81 SE5         N/A
$$

LMZ740>746-261100-
SOUTHERN LAKE MICHIGAN

STATION/POSITION SKY/WX   TEMP    WIND        PRES    VSBY  WAVE
                          AIR SEA DIR/SP/G                  HT/PER
                          (F)     (DEG/KT/KT) (MB)    (MI)  (FT/S)
SOUTHERN BUOY              72 74  330/ 14/ 16 1018.3          2/ 3
WILMETTE HARBOR            68 68  340/  6/  8   N/A           1
HARRISON CRIB              70     340/  6/  6   N/A
BURNHAM HARBOR             66     130/  2/  4   N/A
CALUMET HARBOR             68      CALM  /  1 1018.8R
BURNS HARBOR               74     360/  7/  9 1020.0R
MICHIGAN CITY              73     310/  6/  7   N/A
MICHIGAN CITY 6N           74 74  350/  8/ 10   N/A           1/ 4
ST. JOSEPH                 74 75  350/  6/ 10 1018.7F         1/ 2
$$

ILZ025>027-034>036-040-047-049-050-058-095>099-261100-
WEST-CENTRAL ILLINOIS

CITY           SKY/WX    TMP DP  RH WIND       PRES   REMARKS
QUINCY         CLOUDY    69  69 100 NE9       30.10S
GALESBURG*     MOCLDY    66  65  96 CALM      30.14R
MACOMB*        LGT RAIN  67  67  97 CALM      30.14R
JACKSONVILLE*  FAIR      71  68  90 E6        30.09F
PITTSFIELD*    FAIR      70  69  97 NE6       30.10S
$$

ILZ028>032-037-038-041>044-048-051>054-059>061-261100-
CENTRAL ILLINOIS

CITY           SKY/WX    TMP DP  RH WIND       PRES   REMARKS
PONTIAC        FAIR      68  68 100 CALM      30.12F
BLOOMINGTON    FAIR      68  67  96 N6        30.12S
DECATUR        FAIR      70  67  90 E5        30.09F
PEORIA         LGT RAIN  69  68  96 NE3       30.12R
LACON*         FAIR      67  65  95 CALM      30.12R
LINCOLN*       MOCLDY    69  69  99 CALM      30.10F
SPRINGFIELD    MOCLDY    73  68  84 NE6       30.10R
TAYLORVILLE    FAIR      71  70  98 NE7       30.09S
$$

ILZ033-039-045-046-055>057-062-063-261100-
EAST-CENTRAL ILLINOIS

CITY           SKY/WX    TMP DP  RH WIND       PRES   REMARKS
CHAMPAIGN      FAIR      70  67  90 CALM      30.11R
RANTOUL*       FAIR      70  69  96 E5        30.12F
MATTOON        FAIR      72  70  93 N6        30.09R
PARIS*         FAIR      72  72 100 CALM      30.10R
$$

ILZ079-100>102-261100-
SOUTHWEST ILLINOIS

CITY           SKY/WX    TMP DP  RH WIND       PRES   REMARKS
ALTON          FAIR      69  68  97 CALM      30.07S
BELLEVILLE     MOCLDY    72  72  98 CALM      30.06R
CAHOKIA*       FAIR      74  71  91 CALM      30.06R
SPARTA*        FAIR      73  72  95 CALM      30.07S
$$

ILZ064>066-069>071-074>076-080>082-084>086-088>090-092>094-261100-
SOUTH-CENTRAL ILLINOIS

CITY           SKY/WX    TMP DP  RH WIND       PRES   REMARKS
CARBONDALE     FAIR      71  70  96 CALM      30.07R FOG
EFFINGHAM*     FAIR      73  73 100 NW3       30.10R FOG
MARION         FAIR      75  73  94 SW3       30.08R
MT. VERNON     FAIR      72  66  83 CALM      30.08R
CENTRALIA*     FAIR      72  72  99 CALM      30.07R
SALEM*         FAIR      73  71  94 CALM      30.08R FOG
$$

ILZ067-068-072-073-078-083-087-091-261100-
SOUTHEAST ILLINOIS

CITY           SKY/WX    TMP DP  RH WIND       PRES   REMARKS
LAWRENCEVILLE  FAIR      73  72  96 S3        30.07S
FLORA*         FAIR      72  71  96 CALM      30.08R
FAIRFIELD*     FAIR      71  71  99 CALM      30.07R FOG
HARRISBURG*    FAIR      71  71  99 CALM      30.07R
ROBINSON*      FAIR      68  68 100 CALM      30.08R FOG
CARMI*         FAIR      70  70 100 CALM      30.07R FOG
$$

ABBREVIATIONS USED IN REMARKS
   TC - TEMPERATURE IN CELSIUS
  WCI - WIND CHILL INDEX
   HX - HEAT INDEX
  VSB - VISIBILITY
$$





USA.gov is the U.S. government's official web portal to all federal, state and local government web resources and services.